[[{"header":{"parameterUnit":"m.s-1","parameterCategory":1,"la1":30.2991,"la2":30.254,"lo1":-89.0895,"lo2":-89.0444,"dy":0.0017,"dx":0.0017,"nx":28,"ny":28,"refTime":"2025-04-07T03:00:00:Z","depth":0,"parameterNumber":2,"parameterNumberName":"U-component_of_WINDS"},"data":[0,0,0,0,0,0,0,0,0,0,0,0,0,0,0,0,0,0,0,0,0,0,0,0,0,0,0,0,0,0,0,0,0,0,0,0,0,0,0,0,0,0,0,0,0,0,0,0,0,0,0,0,0,0,0,0,0,0,1.6674,1.6674,0,1.6638,1.6638,1.6637,1.6585,1.6584,1.6583,1.6583,1.6546,1.6546,1.6546,0,0,0,0,0,0,0,0,0,0,0,0,0,1.6699,1.6699,1.6674,1.6674,1.6673,1.6638,1.6638,1.6637,1.6585,1.6584,1.6583,1.6582,1.6546,1.6546,1.6546,0,0,0,0,0,0,0,0,0,0,0,0,0,1.6678,1.6699,1.6674,1.6643,1.664,1.6638,1.6638,1.6637,1.6586,1.6584,1.6583,1.6582,1.6546,1.6546,1.6546,1.6572,0,0,1.6545,1.6545,0,0,0,0,0,0,0,0,1.6679,1.6677,1.6648,1.6645,1.6642,1.6615,1.6633,1.6615,1.6586,1.6606,1.6583,1.6581,1.657,1.6568,1.6564,1.657,1.6568,1.6545,1.6545,1.6545,1.6545,0,0,0,0,0,0,0,1.6681,1.6678,1.666,1.6648,1.6644,1.6631,1.6627,1.6629,1.6596,1.6604,1.6601,1.6597,1.6568,1.6564,1.6563,1.6568,1.6545,1.6545,1.6545,1.6545,1.6593,1.6594,0,0,0,0,0,0,1.6687,1.668,1.6661,1.6659,1.6658,1.6632,1.6627,1.6625,1.6596,1.659,1.6598,1.6595,1.6565,1.6563,1.6561,1.6589,1.6545,1.6545,1.6545,1.6591,1.6593,1.6594,0,0,0,0,0,0,1.6687,1.6686,1.6662,1.6668,1.6664,1.6633,1.6631,1.6625,1.6621,1.6591,1.6585,1.66,1.6564,1.6562,1.6569,1.6587,1.6545,1.6545,1.659,1.6592,1.6594,1.6645,0,0,0,0,0,0,1.6688,1.6686,1.6695,1.6669,1.6664,1.6671,1.6632,1.6625,1.6621,1.6616,1.6592,1.6586,1.6563,1.657,1.6569,1.6586,1.6545,1.6588,1.659,1.6593,1.6641,1.6648,1.6654,0,0,0,0,0,1.6689,1.6711,1.6696,1.6694,1.6675,1.6672,1.6669,1.6642,1.6622,1.6631,1.6612,1.6587,1.6586,1.6571,1.657,1.6587,1.6587,1.659,1.6593,1.6638,1.6647,1.6654,0,0,0,0,0,0,1.6741,1.6707,1.669,1.6704,1.6691,1.6663,1.6674,1.6652,1.6644,1.664,1.6606,1.6601,1.6613,1.6601,1.6585,1.661,1.6582,1.6585,1.6617,1.6625,1.6631,1.6634,1.6544,0,0,0,0,0,1.6754,1.6754,1.6725,1.674,1.6734,1.6705,1.6703,1.6683,1.6668,1.6663,1.6644,1.6631,1.6628,1.6626,1.6621,1.664,1.6633,1.6651,1.6657,1.6663,1.6665,1.6674,1.6681,1.6605,1.6605,1.6604,0,0,1.6781,1.6762,1.6764,1.675,1.6737,1.6738,1.6701,1.6704,1.6704,1.6663,1.6669,1.6655,1.6638,1.6652,1.6656,1.6642,1.6685,1.6667,1.6671,1.6671,1.6678,1.6685,1.6691,1.6607,1.6606,1.6606,0,0,1.6829,1.6816,1.6827,1.6815,1.6797,1.6778,1.6781,1.6756,1.6745,1.675,1.672,1.672,1.6714,1.6703,1.6697,1.6743,1.6719,1.6742,1.6776,1.6784,1.679,1.6795,1.6811,1.6817,1.6745,1.6745,1.6746,0,1.6865,1.6864,1.6835,1.6839,1.6834,1.6797,1.6808,1.6798,1.6779,1.6776,1.676,1.6753,1.6739,1.6749,1.676,1.6756,1.6758,1.6744,1.6792,1.6797,1.6801,1.6815,1.6821,1.6748,1.6748,1.6748,1.6747,0,1.6909,1.6909,1.692,1.6902,1.6898,1.6906,1.6878,1.6877,1.6858,1.684,1.6846,1.6828,1.6819,1.682,1.6801,1.6827,1.6819,1.6798,1.6769,1.6811,1.6824,1.6829,1.6752,1.6751,1.675,1.675,0,0,1.6987,1.6954,1.6958,1.695,1.6927,1.6927,1.6933,1.6924,1.6924,1.6913,1.6916,1.6913,1.6894,1.6887,1.6867,1.6874,1.691,1.6852,1.6851,1.6863,1.6937,1.6952,1.6959,1.6895,1.6896,1.6897,1.6938,0,1.7031,1.7039,1.7013,1.7027,1.7027,1.6992,1.6998,1.6985,1.6969,1.6966,1.6949,1.6947,1.6922,1.6917,1.6923,1.6905,1.6925,1.6902,1.6898,1.6898,1.6902,1.6965,1.6981,1.7021,1.6943,1.6944,1.6944,0,1.7082,1.7073,1.7088,1.7064,1.7063,1.7068,1.7057,1.7056,1.7041,1.7028,1.7021,1.6998,1.7002,1.6976,1.6981,1.6966,1.6963,1.6954,1.6955,1.6952,1.6923,1.6963,1.7033,1.7038,1.6952,1.6951,1.6951,0,1.7137,1.7129,1.7136,1.713,1.7103,1.7108,1.7097,1.708,1.7076,1.7067,1.7064,1.7056,1.7051,1.7046,1.7021,1.7004,1.7029,1.7,1.7018,1.7019,1.7024,1.7024,1.7092,1.7025,1.7025,1.7024,1.7024,0,1.7187,1.7197,1.716,1.7164,1.7175,1.7145,1.7156,1.7142,1.7127,1.7128,1.7099,1.7101,1.7068,1.7067,1.7047,1.7054,1.7053,1.7043,1.7037,1.7045,1.7046,1.7041,1.7037,1.7026,1.7026,1.7025,1.7025,0,1.7249,1.7225,1.723,1.7205,1.7199,1.7207,1.7185,1.7188,1.7171,1.7173,1.7171,1.7144,1.7141,1.7116,1.7107,1.7094,1.7107,1.7097,1.7112,1.7108,1.7127,1.7125,1.7194,1.7201,1.7131,1.7131,1.7132,0,1.7282,1.7289,1.7264,1.7262,1.7253,1.7251,1.7247,1.7218,1.7215,1.7198,1.7204,1.7198,1.7191,1.7187,1.7166,1.7159,1.7148,1.7173,1.7146,1.7153,1.7147,1.7146,1.7146,1.7178,1.7179,1.7179,1.718,0,1.7343,1.733,1.7325,1.7316,1.7312,1.7304,1.7293,1.7294,1.7262,1.7261,1.7256,1.7251,1.7242,1.7236,1.7226,1.7215,1.7192,1.7189,1.7192,1.7199,1.7207,1.7201,1.7126,1.7187,1.7186,1.7186,1.7185,1.7185,1.739,1.7394,1.7377,1.7373,1.7362,1.7353,1.7355,1.7338,1.7333,1.7323,1.7307,1.7305,1.729,1.7273,1.7264,1.7262,1.7249,1.7255,1.7256,1.7257,1.726,1.7209,1.726,1.726,1.726,1.726,1.726,0,1.7448,1.7436,1.7432,1.7418,1.7415,1.7394,1.7382,1.738,1.7379,1.7366,1.7361,1.7356,1.735,1.733,1.7322,1.7324,1.7314,1.7323,1.7322,1.7319,1.7273,1.727,1.7332,1.7332,1.7332,1.7332,1.7332,1.7332,1.7478,1.7483,1.7469,1.7469,1.7457,1.7454,1.7449,1.7441,1.7431,1.7427,1.7422,1.7408,1.7393,1.7384,1.7378,1.7372,1.737,1.7382,1.7373,1.733,1.7323,1.7316,1.7313,1.7382,1.7383,1.7419,1.7419,1.7419]},{"header":{"parameterUnit":"m.s-1","parameterCategory":1,"la1":30.2991,"la2":30.254,"lo1":-89.0895,"lo2":-89.0444,"dy":0.0017,"dx":0.0017,"nx":28,"ny":28,"refTime":"2025-04-07T03:00:00:Z","depth":0,"parameterNumber":3,"parameterNumberName":"V-component_of_WINDS"},"data":[0,0,0,0,0,0,0,0,0,0,0,0,0,0,0,0,0,0,0,0,0,0,0,0,0,0,0,0,0,0,0,0,0,0,0,0,0,0,0,0,0,0,0,0,0,0,0,0,0,0,0,0,0,0,0,0,0,0,-4.4993,-4.4995,0,-4.5223,-4.5226,-4.5228,-4.5198,-4.5194,-4.519,-4.5186,-4.5422,-4.5432,-4.5442,0,0,0,0,0,0,0,0,0,0,0,0,0,-4.4527,-4.4535,-4.4992,-4.4995,-4.4998,-4.5223,-4.5226,-4.5229,-4.5198,-4.5194,-4.5189,-4.5185,-4.5419,-4.5431,-4.5443,0,0,0,0,0,0,0,0,0,0,0,0,0,-4.474,-4.4538,-4.4992,-4.501,-4.5014,-4.5222,-4.5226,-4.523,-4.5199,-4.5193,-4.5188,-4.5182,-4.5415,-4.543,-4.5444,-4.5649,0,0,-4.5489,-4.5496,0,0,0,0,0,0,0,0,-4.4728,-4.4757,-4.5004,-4.5009,-4.5014,-4.5176,-4.5148,-4.537,-4.5201,-4.5129,-4.5186,-4.518,-4.5345,-4.5365,-4.5421,-4.566,-4.567,-4.549,-4.5499,-4.5506,-4.551,0,0,0,0,0,0,0,-4.4713,-4.4747,-4.5084,-4.5008,-4.5014,-4.5007,-4.5031,-4.519,-4.5266,-4.5135,-4.5133,-4.5161,-4.5346,-4.5407,-4.5426,-4.5674,-4.549,-4.5503,-4.5512,-4.5518,-4.6093,-4.61,0,0,0,0,0,0,-4.4694,-4.4735,-4.5076,-4.5091,-4.4854,-4.502,-4.5047,-4.513,-4.5264,-4.5279,-4.5165,-4.5158,-4.5384,-4.5409,-4.5434,-4.5684,-4.5506,-4.5519,-4.5528,-4.6087,-4.6095,-4.6102,0,0,0,0,0,0,-4.4684,-4.4724,-4.5067,-4.4913,-4.4956,-4.5034,-4.5127,-4.5137,-4.5197,-4.5287,-4.5301,-4.5213,-4.5381,-4.5414,-4.5596,-4.5692,-4.5526,-4.5539,-4.6079,-4.6089,-4.6098,-4.6185,0,0,0,0,0,0,-4.4671,-4.4721,-4.48,-4.4915,-4.4964,-4.5225,-4.5133,-4.5146,-4.5223,-4.5216,-4.5336,-4.535,-4.5379,-4.5574,-4.5611,-4.5709,-4.5551,-4.6071,-4.6084,-4.6095,-4.6174,-4.6196,-4.6215,0,0,0,0,0,-4.4654,-4.4815,-4.4804,-4.4845,-4.5064,-4.5231,-4.5259,-4.5289,-4.5231,-4.5311,-4.5368,-4.5346,-4.5675,-4.5593,-4.5634,-4.5738,-4.6065,-4.608,-4.6094,-4.6164,-4.6192,-4.6215,0,0,0,0,0,0,-4.4709,-4.483,-4.4819,-4.5022,-4.5116,-4.5225,-4.5327,-4.5317,-4.543,-4.5419,-4.5451,-4.5479,-4.5663,-4.5719,-4.5625,-4.5944,-4.5862,-4.5886,-4.5901,-4.5928,-4.5949,-4.5932,-4.5563,0,0,0,0,0,-4.4745,-4.487,-4.4969,-4.5138,-4.5186,-4.5249,-4.5322,-4.5337,-4.5436,-4.5476,-4.5547,-4.5645,-4.577,-4.5852,-4.5972,-4.6181,-4.6207,-4.6273,-4.6293,-4.631,-4.6331,-4.6446,-4.6477,-4.615,-4.6149,-4.6149,0,0,-4.482,-4.4902,-4.4979,-4.5151,-4.5226,-4.5356,-4.5282,-4.5422,-4.5519,-4.5498,-4.5675,-4.573,-4.5841,-4.6038,-4.6128,-4.609,-4.6426,-4.6329,-4.6341,-4.6353,-4.6464,-4.6495,-4.6523,-4.6159,-4.6158,-4.6156,0,0,-4.5024,-4.5097,-4.5247,-4.5324,-4.5438,-4.5478,-4.5514,-4.5625,-4.5662,-4.584,-4.5827,-4.5942,-4.6156,-4.6236,-4.6305,-4.6538,-4.6523,-4.6576,-4.6686,-4.6798,-4.6824,-4.6847,-4.6932,-4.6962,-4.6596,-4.6596,-4.6596,0,-4.5103,-4.5298,-4.5325,-4.5468,-4.5544,-4.553,-4.5682,-4.5755,-4.5903,-4.5957,-4.5911,-4.6181,-4.6254,-4.647,-4.6527,-4.6583,-4.6625,-4.6564,-4.6818,-4.6842,-4.6864,-4.6945,-4.6976,-4.6602,-4.6602,-4.6601,-4.66,0,-4.539,-4.5525,-4.5632,-4.5776,-4.5864,-4.6011,-4.6061,-4.6147,-4.6154,-4.6199,-4.6381,-4.6468,-4.6607,-4.6658,-4.6666,-4.6876,-4.6849,-4.6811,-4.6729,-4.69,-4.6977,-4.7008,-4.6611,-4.6609,-4.6607,-4.6605,0,0,-4.5636,-4.5793,-4.5832,-4.5897,-4.6022,-4.6127,-4.6273,-4.6408,-4.6482,-4.6584,-4.6708,-4.689,-4.6856,-4.6933,-4.695,-4.7048,-4.723,-4.6998,-4.7001,-4.704,-4.7467,-4.7497,-4.7532,-4.7219,-4.7225,-4.723,-4.7459,0,-4.5853,-4.6111,-4.614,-4.637,-4.6496,-4.6485,-4.6612,-4.6702,-4.6748,-4.6862,-4.6912,-4.7042,-4.6985,-4.7033,-4.7129,-4.7187,-4.7316,-4.7171,-4.7335,-4.7341,-4.731,-4.7572,-4.7604,-4.7815,-4.7489,-4.7494,-4.7497,0,-4.6141,-4.6252,-4.6495,-4.6603,-4.6657,-4.6771,-4.6897,-4.7005,-4.7108,-4.7134,-4.7222,-4.7226,-4.7376,-4.7288,-4.7496,-4.7397,-4.7465,-4.7504,-4.7513,-4.7531,-4.7431,-4.7599,-4.7883,-4.7916,-4.7545,-4.7541,-4.7538,0,-4.6298,-4.6508,-4.6681,-4.6736,-4.6867,-4.6947,-4.7005,-4.7102,-4.7181,-4.7292,-4.7344,-4.747,-4.754,-4.7637,-4.7675,-4.7607,-4.7882,-4.7796,-4.7909,-4.7909,-4.7969,-4.7965,-4.8271,-4.8011,-4.801,-4.801,-4.8009,0,-4.6539,-4.6688,-4.6753,-4.686,-4.7027,-4.7058,-4.7223,-4.7277,-4.7364,-4.7481,-4.7477,-4.7587,-4.763,-4.7747,-4.7777,-4.7946,-4.7977,-4.8003,-4.801,-4.8005,-4.8002,-4.8051,-4.8038,-4.8018,-4.8016,-4.8015,-4.8013,0,-4.6743,-4.6793,-4.698,-4.7088,-4.7119,-4.7237,-4.7329,-4.7433,-4.7476,-4.7625,-4.7661,-4.7731,-4.7868,-4.7915,-4.8082,-4.8102,-4.8299,-4.8292,-4.8265,-4.8266,-4.8377,-4.8367,-4.8727,-4.8776,-4.8482,-4.8485,-4.8487,0,-4.6894,-4.7009,-4.7129,-4.7207,-4.7268,-4.7394,-4.7475,-4.7511,-4.7595,-4.7721,-4.7809,-4.7945,-4.8057,-4.8276,-4.8342,-4.8469,-4.8466,-4.8584,-4.8486,-4.8477,-4.847,-4.8464,-4.8476,-4.8603,-4.8606,-4.8608,-4.861,0,-4.7158,-4.7177,-4.7294,-4.742,-4.7517,-4.7618,-4.7716,-4.778,-4.783,-4.7925,-4.8066,-4.8152,-4.8322,-4.8458,-4.8588,-4.8647,-4.8638,-4.864,-4.8674,-4.867,-4.8651,-4.8664,-4.8317,-4.8632,-4.863,-4.8629,-4.8627,-4.8626,-4.7342,-4.7444,-4.7544,-4.7675,-4.7752,-4.7844,-4.7946,-4.8003,-4.8121,-4.8262,-4.8275,-4.8427,-4.8527,-4.8701,-4.8766,-4.8886,-4.8853,-4.89,-4.8913,-4.8925,-4.8934,-4.863,-4.8909,-4.8908,-4.8908,-4.8907,-4.8907,0,-4.7607,-4.767,-4.779,-4.7927,-4.803,-4.8012,-4.8119,-4.8207,-4.834,-4.8434,-4.8543,-4.8705,-4.8837,-4.8912,-4.9044,-4.9125,-4.9124,-4.9158,-4.9154,-4.9168,-4.8955,-4.8914,-4.9157,-4.9157,-4.9157,-4.9157,-4.9157,-4.9157,-4.7757,-4.7928,-4.7959,-4.8169,-4.8232,-4.8381,-4.8444,-4.8528,-4.8603,-4.8784,-4.8893,-4.8941,-4.9028,-4.9166,-4.9286,-4.9305,-4.9354,-4.9393,-4.9408,-4.9208,-4.9183,-4.9158,-4.912,-4.9403,-4.9403,-4.9612,-4.9614,-4.9615]}]]